AirNav   Everest Fuels
 
 1200 users online  

06NH Cole Farm Airport
Kensington, New Hampshire, USA

GOING TO KENSINGTON?


FAA INFORMATION EFFECTIVE 10 SEPTEMBER 2020

Location

FAA Identifier: 06NH
Lat/Long: 42-55-42.3200N 070-58-23.2000W
42-55.705333N 070-58.386667W
42.9284222,-70.9731111
(estimated)
Elevation: 160 ft. / 49 m (estimated)
Variation: 16W (2000)
From city: 2 miles W of KENSINGTON, NH
Time zone: UTC -4 (UTC -5 during Standard Time)
Zip code: 03833

Airport Operations

Airport use: Private use. Permission required prior to landing
Activation date: 11/2000
Control tower: no
ARTCC: BOSTON CENTER
FSS: BANGOR FLIGHT SERVICE STATION
Attendance: UNATNDD
Segmented circle: no

Airport Communications

WX ASOS at LWM (14 nm SW): PHONE 978-687-8017

Nearby radio navigation aids

VOR radial/distance  VOR name  Freq  Var
PSMr229/11.2PEASE VOR/DME116.5016W
LWMr040/12.5LAWRENCE VOR/DME112.5015W
MHTr093/17.8MANCHESTER VOR/DME114.4015W
CONr139/31.7CONCORD VOR/DME112.9015W
ENEr225/33.7KENNEBUNK VOR/DME117.1017W
BOSr017/34.3BOSTON VOR/DME112.7016W

 
NDB name  Hdg/Dist  Freq  Var  ID
ROLLINS216/18.626016WESG . ... --.

Airport Services

Runway Information

Runway 17/35

Dimensions: 1900 x 150 ft. / 579 x 46 m
Surface: turf
RUNWAY 17  RUNWAY 35
Traffic pattern: leftleft
Obstructions: none20 ft. pline, 300 ft. from runway

Airport Ownership and Management from official FAA records

Ownership: Privately-owned
Owner: GEORGE COLE
89 STUMPFIELD ROAD
KENSINGTON, NH 03833
Phone 603-772-3335
Manager: GEORGE COLE
89 STUMPFIELD ROAD
KENSINGTON, NH 03833
Phone 603-772-3335

Airport Operational Statistics

Aircraft based on the field: 5
Single engine airplanes: 5
    

Additional Remarks

OWNER DESIRES ARPT NOT BE CHARTED.
FOR CD CTC BOSTON APCH AT 603-594-5551.

Instrument Procedures

There are no published instrument procedures at 06NH.

Some nearby airports with instrument procedures:

KPSM - Portsmouth International Airport at Pease (11 nm NE)
KLWM - Lawrence Municipal Airport (14 nm SW)
3B4 - Littlebrook Air Park (16 nm NE)
KMHT - Manchester Airport (20 nm W)
KBVY - Beverly Regional Airport (21 nm S)
 
Loc | Ops | Rwys | IFR | FBO | Links
Com | Nav | Svcs | Stats | Notes
Area around 06NH (Cole Farm Airport)
 
Road maps at: MapQuest Bing Google
 
Aerial photo
WARNING: Photo may not be current or correct
Aerial photo of 06NH (Cole Farm Airport)
Do you have a better or more recent aerial photo of Cole Farm Airport that you would like to share? If so, please send us your photo.

 
Sectional chart

 
Airport distance calculator
Flying to Cole Farm Airport? Find the distance to fly.

From to 06NH

Sunrise and sunset
Times for 19-Sep-2020
 Local
(UTC-4)
 Zulu
(UTC)
Morning civil twilight06:0210:02
Sunrise06:3010:30
Sunset18:4522:45
Evening civil twilight19:1323:13

Current date and time
Zulu (UTC)  19-Sep-2020 19:56:20
Local (UTC-4)  19-Sep-2020 15:56:20
 
METAR
KPSM 
11nm NE 
191856Z 06005KT 10SM CLR 17/M07 A3027 RMK AO2A SLP253 T01681070
KLWM 
15nm SW 
191854Z 29005KT 10SM CLR 16/M01 A3030 RMK AO2 SLP262 T01611011
KMHT 
20nm W 
191853Z 34007KT 270V360 10SM CLR 17/M04 A3028 RMK AO2 SLP266 T01721044
KBVY 
21nm S 
191853Z 13006KT 10SM CLR 16/M01 A3029 RMK AO2 SLP252 T01561006
KDAW 
21nm N 
191851Z AUTO 32006KT 10SM CLR 17/M04 A3028 RMK AO2 SLP251 T01671044
TAF
KPSM 
11nm NE 
191720Z 1918/2018 36009KT P6SM FEW030 FM192200 34007KT P6SM SKC FM201200 01009KT P6SM FEW250 FM201500 02013G20KT P6SM FEW250
NOTAMs
Click for the latest NOTAMs
NOTAMs are issued by the DoD/FAA and will open in a separate window not controlled by AirNav.

 

 
 

Would you like to see your business listed on this page?

 If your business provides an interesting product or service to pilots, flight crews, aircraft, or users of the Cole Farm Airport, you should consider listing it here.  To start the listing process, click on the button below
 
Add a business
 

Other Pages about Cole Farm Airport

Update a link
 
Copyright © AirNav, LLC. All rights reserved. Privacy Policy  Contact